Time,TemperatureF,DewpointF,PressureIn,WindDirection,WindDirectionDegrees,WindSpeedMPH,WindSpeedGustMPH,Humidity,HourlyPrecipIn,Conditions,Clouds,dailyrainin,SoftwareType,DateUTC
2013-03-28 00:01:00,49.4,45.7,29.81,ESE,108,0.0,0.0,87,0.00,,,0.00,Wunderground v.1.15,2013-03-28 07:01:00,
2013-03-28 00:06:00,49.4,45.7,29.81,NNE,14,0.0,0.0,87,0.00,,,0.00,Wunderground v.1.15,2013-03-28 07:06:00,
2013-03-28 00:16:00,49.3,45.9,29.81,South,170,0.0,0.0,88,0.00,,,0.00,Wunderground v.1.15,2013-03-28 07:16:00,
2013-03-28 00:26:00,49.3,45.9,29.81,ESE,121,0.0,0.0,88,0.00,,,0.00,Wunderground v.1.15,2013-03-28 07:26:00,
2013-03-28 00:36:00,49.3,46.2,29.81,ESE,115,0.0,0.0,89,0.00,,,0.00,Wunderground v.1.15,2013-03-28 07:36:00,
2013-03-28 00:41:00,49.2,46.1,29.81,ESE,115,0.0,0.0,89,0.00,,,0.00,Wunderground v.1.15,2013-03-28 07:41:00,
2013-03-28 00:51:00,49.2,46.1,29.81,SE,132,0.0,0.0,89,0.00,,,0.00,Wunderground v.1.15,2013-03-28 07:51:00,
2013-03-28 01:01:00,49.2,46.1,29.81,SE,130,0.0,0.0,89,0.00,,,0.00,Wunderground v.1.15,2013-03-28 08:01:00,
2013-03-28 01:16:00,49.2,46.4,29.81,SE,130,0.0,0.0,90,0.00,,,0.00,Wunderground v.1.15,2013-03-28 08:16:00,
2013-03-28 01:21:00,49.1,46.3,29.81,SE,130,0.0,0.0,90,0.00,,,0.00,Wunderground v.1.15,2013-03-28 08:21:00,
2013-03-28 01:36:00,49.1,46.3,29.81,SE,130,0.0,0.0,90,0.00,,,0.00,Wunderground v.1.15,2013-03-28 08:36:00,
2013-03-28 01:46:00,49.1,46.3,29.81,SE,130,0.0,0.0,90,0.00,,,0.00,Wunderground v.1.15,2013-03-28 08:46:00,
2013-03-28 01:56:00,49.1,46.3,29.81,SE,130,0.0,0.0,90,0.00,,,0.00,Wunderground v.1.15,2013-03-28 08:56:00,
2013-03-28 02:06:00,49.2,46.4,29.81,SE,130,0.0,0.0,90,0.00,,,0.00,Wunderground v.1.15,2013-03-28 09:06:00,
2013-03-28 02:15:00,49.2,46.7,29.81,SE,130,0.0,0.0,91,0.00,,,0.00,Wunderground v.1.15,2013-03-28 09:15:00,
2013-03-28 02:25:00,49.2,46.7,29.81,SE,130,0.0,0.0,91,0.00,,,0.00,Wunderground v.1.15,2013-03-28 09:25:00,
2013-03-28 02:31:00,49.2,46.7,29.81,SE,130,0.0,0.0,91,0.00,,,0.00,Wunderground v.1.15,2013-03-28 09:31:00,
2013-03-28 02:40:00,49.2,46.7,29.81,SE,130,0.0,0.0,91,0.00,,,0.00,Wunderground v.1.15,2013-03-28 09:40:00,
2013-03-28 02:50:00,49.1,46.6,29.81,SE,130,0.0,0.0,91,0.00,,,0.00,Wunderground v.1.15,2013-03-28 09:50:00,
2013-03-28 02:56:00,49.1,46.6,29.81,SE,130,0.0,0.0,91,0.00,,,0.00,Wunderground v.1.15,2013-03-28 09:56:00,
2013-03-28 03:06:00,49.0,46.2,29.81,SE,130,0.0,0.0,90,0.00,,,0.00,Wunderground v.1.15,2013-03-28 10:06:00,
2013-03-28 03:15:00,49.0,46.2,29.81,SE,130,0.0,0.0,90,0.00,,,0.00,Wunderground v.1.15,2013-03-28 10:15:00,
2013-03-28 03:25:00,48.9,46.4,29.81,SE,130,0.0,0.0,91,0.00,,,0.00,Wunderground v.1.15,2013-03-28 10:25:00,
2013-03-28 03:30:00,48.9,46.4,29.81,SE,130,0.0,0.0,91,0.00,,,0.00,Wunderground v.1.15,2013-03-28 10:30:00,
2013-03-28 03:40:00,48.9,46.4,29.81,SE,130,0.0,0.0,91,0.00,,,0.00,Wunderground v.1.15,2013-03-28 10:40:00,
2013-03-28 03:47:00,48.9,46.4,29.81,SE,130,0.0,0.0,91,0.00,,,0.00,Wunderground v.1.15,2013-03-28 10:47:00,
2013-03-28 03:56:00,48.9,46.4,29.81,SE,130,0.0,0.0,91,0.00,,,0.00,Wunderground v.1.15,2013-03-28 10:56:00,
2013-03-28 04:02:00,48.9,46.4,29.81,SE,130,0.0,0.0,91,0.00,,,0.00,Wunderground v.1.15,2013-03-28 11:02:00,
2013-03-28 04:11:00,48.9,46.4,29.81,SE,130,0.0,0.0,91,0.00,,,0.00,Wunderground v.1.15,2013-03-28 11:11:00,
2013-03-28 04:17:00,48.9,46.4,29.81,SE,130,0.0,0.0,91,0.00,,,0.00,Wunderground v.1.15,2013-03-28 11:17:00,
2013-03-28 04:26:00,48.9,46.4,29.81,SE,130,0.0,0.0,91,0.00,,,0.00,Wunderground v.1.15,2013-03-28 11:26:00,
2013-03-28 04:37:00,49.0,46.5,29.81,SE,130,0.0,0.0,91,0.00,,,0.00,Wunderground v.1.15,2013-03-28 11:37:00,
2013-03-28 04:46:00,49.0,46.5,29.81,SE,130,0.0,0.0,91,0.00,,,0.00,Wunderground v.1.15,2013-03-28 11:46:00,
2013-03-28 04:56:00,49.0,46.5,29.81,ESE,121,0.0,0.0,91,0.00,,,0.00,Wunderground v.1.15,2013-03-28 11:56:00,
2013-03-28 05:02:00,48.9,46.4,29.80,ESE,121,0.0,0.0,91,0.00,,,0.00,Wunderground v.1.15,2013-03-28 12:02:00,
2013-03-28 05:11:00,48.9,46.4,29.81,ESE,121,0.0,0.0,91,0.00,,,0.00,Wunderground v.1.15,2013-03-28 12:11:00,
2013-03-28 05:21:00,48.9,46.4,29.81,ESE,121,0.0,0.0,91,0.00,,,0.00,Wunderground v.1.15,2013-03-28 12:21:00,
2013-03-28 05:31:00,48.9,46.4,29.81,ESE,121,0.0,0.0,91,0.00,,,0.00,Wunderground v.1.15,2013-03-28 12:31:00,
2013-03-28 05:41:00,48.8,46.3,29.81,ESE,121,0.0,0.0,91,0.00,,,0.00,Wunderground v.1.15,2013-03-28 12:41:00,
2013-03-28 05:51:00,48.8,46.3,29.81,ESE,121,0.0,0.0,91,0.00,,,0.00,Wunderground v.1.15,2013-03-28 12:51:00,
2013-03-28 06:01:00,48.8,46.3,29.81,ESE,121,0.0,0.0,91,0.00,,,0.00,Wunderground v.1.15,2013-03-28 13:01:00,
2013-03-28 06:06:00,48.8,46.3,29.81,ESE,121,0.0,0.0,91,0.00,,,0.00,Wunderground v.1.15,2013-03-28 13:06:00,
2013-03-28 06:36:00,48.5,46.0,29.81,ESE,121,0.0,0.0,91,0.00,,,0.00,Wunderground v.1.15,2013-03-28 13:36:00,
2013-03-28 06:41:00,48.5,46.0,29.81,ESE,121,0.0,0.0,91,0.00,,,0.00,Wunderground v.1.15,2013-03-28 13:41:00,
2013-03-28 06:56:00,48.4,45.9,29.81,ESE,121,0.0,0.0,91,0.00,,,0.00,Wunderground v.1.15,2013-03-28 13:56:00,
2013-03-28 07:01:00,48.4,45.9,29.81,ESE,121,0.0,0.0,91,0.00,,,0.00,Wunderground v.1.15,2013-03-28 14:01:00,
2013-03-28 07:11:00,48.4,45.9,29.82,ESE,121,0.0,0.0,91,0.00,,,0.00,Wunderground v.1.15,2013-03-28 14:11:00,
2013-03-28 07:21:00,48.5,46.0,29.82,ESE,121,0.0,0.0,91,0.00,,,0.00,Wunderground v.1.15,2013-03-28 14:21:00,
2013-03-28 07:26:00,48.5,46.0,29.83,ESE,121,0.0,0.0,91,0.00,,,0.00,Wunderground v.1.15,2013-03-28 14:26:00,
2013-03-28 07:46:00,48.7,46.5,29.84,ESE,121,0.0,0.0,92,0.00,,,0.00,Wunderground v.1.15,2013-03-28 14:46:00,
2013-03-28 08:01:00,48.9,46.7,29.84,ESE,121,0.0,0.0,92,0.00,,,0.00,Wunderground v.1.15,2013-03-28 15:01:00,
2013-03-28 08:10:00,49.0,46.8,29.85,East,79,0.0,0.0,92,0.00,,,0.00,Wunderground v.1.15,2013-03-28 15:10:00,
2013-03-28 08:20:00,49.1,46.9,29.85,ENE,74,0.0,1.0,92,0.00,,,0.00,Wunderground v.1.15,2013-03-28 15:20:00,
2013-03-28 08:26:00,49.2,47.0,29.85,ENE,74,0.0,1.0,92,0.00,,,0.00,Wunderground v.1.15,2013-03-28 15:26:00,
2013-03-28 08:36:00,49.4,47.2,29.85,NE,56,0.0,0.0,92,0.00,,,0.00,Wunderground v.1.15,2013-03-28 15:36:00,
2013-03-28 08:46:00,49.6,47.4,29.86,ENE,61,0.0,0.0,92,0.00,,,0.00,Wunderground v.1.15,2013-03-28 15:46:00,
2013-03-28 08:55:00,49.9,47.7,29.86,ENE,73,0.0,0.0,92,0.00,,,0.00,Wunderground v.1.15,2013-03-28 15:55:00,
2013-03-28 09:01:00,50.1,47.9,29.86,ENE,73,0.0,0.0,92,0.00,,,0.00,Wunderground v.1.15,2013-03-28 16:01:00,
2013-03-28 09:10:00,50.5,48.3,29.87,ENE,73,0.0,0.0,92,0.00,,,0.00,Wunderground v.1.15,2013-03-28 16:10:00,
2013-03-28 09:21:00,50.8,48.3,29.87,ESE,114,1.0,1.0,91,0.00,,,0.00,Wunderground v.1.15,2013-03-28 16:21:00,
2013-03-28 09:30:00,51.1,48.6,29.87,NE,56,0.0,1.0,91,0.00,,,0.00,Wunderground v.1.15,2013-03-28 16:30:00,
2013-03-28 09:40:00,51.4,48.6,29.87,ENE,78,1.0,1.0,90,0.00,,,0.00,Wunderground v.1.15,2013-03-28 16:40:00,
2013-03-28 09:46:00,51.7,48.6,29.87,ENE,68,1.0,4.0,89,0.00,,,0.00,Wunderground v.1.15,2013-03-28 16:46:00,
2013-03-28 09:52:00,52.4,49.3,29.87,NE,55,2.0,4.0,89,0.00,,,0.00,Wunderground v.1.15,2013-03-28 16:52:00,
2013-03-28 10:02:00,53.8,49.4,29.86,NE,44,3.0,3.0,85,0.00,,,0.00,Wunderground v.1.15,2013-03-28 17:02:00,
2013-03-28 10:11:00,53.6,48.6,29.87,NE,50,2.0,2.0,83,0.00,,,0.00,Wunderground v.1.15,2013-03-28 17:11:00,
2013-03-28 10:21:00,53.3,48.3,29.87,ENE,68,2.0,2.0,83,0.00,,,0.00,Wunderground v.1.15,2013-03-28 17:21:00,
2013-03-28 10:32:00,53.4,48.4,29.87,ESE,104,0.0,0.0,83,0.00,,,0.00,Wunderground v.1.15,2013-03-28 17:32:00,
2013-03-28 10:46:00,53.8,48.4,29.87,NE,55,1.0,2.0,82,0.00,,,0.00,Wunderground v.1.15,2013-03-28 17:46:00,
2013-03-28 10:56:00,53.7,48.3,29.87,ESE,115,1.0,1.0,82,0.00,,,0.00,Wunderground v.1.15,2013-03-28 17:56:00,
2013-03-28 11:01:00,53.7,48.7,29.87,ESE,120,1.0,1.0,83,0.00,,,0.00,Wunderground v.1.15,2013-03-28 18:01:00,
2013-03-28 11:11:00,54.2,50.1,29.87,ENE,76,0.0,4.0,86,0.00,,,0.01,Wunderground v.1.15,2013-03-28 18:11:00,
2013-03-28 11:16:00,54.1,49.1,29.87,SE,124,1.0,4.0,83,0.00,,,0.01,Wunderground v.1.15,2013-03-28 18:16:00,
2013-03-28 11:26:00,54.2,49.1,29.87,SE,126,1.0,1.0,83,0.00,,,0.01,Wunderground v.1.15,2013-03-28 18:26:00,
2013-03-28 11:36:00,54.3,49.2,29.87,SE,141,0.0,1.0,83,0.00,,,0.01,Wunderground v.1.15,2013-03-28 18:36:00,
2013-03-28 11:51:00,54.5,49.8,29.87,SE,141,0.0,0.0,84,0.00,,,0.01,Wunderground v.1.15,2013-03-28 18:51:00,
2013-03-28 12:01:00,54.7,50.3,29.87,SE,141,0.0,0.0,85,0.00,,,0.01,Wunderground v.1.15,2013-03-28 19:01:00,
2013-03-28 12:11:00,56.0,52.2,29.87,SE,141,0.0,0.0,87,0.00,,,0.01,Wunderground v.1.15,2013-03-28 19:11:00,
2013-03-28 12:21:00,56.6,51.2,29.87,NNE,27,0.0,0.0,82,0.00,,,0.01,Wunderground v.1.15,2013-03-28 19:21:00,
2013-03-28 12:26:00,58.3,53.5,29.87,NNE,27,0.0,0.0,84,0.00,,,0.01,Wunderground v.1.15,2013-03-28 19:26:00,
2013-03-28 12:31:00,58.6,51.4,29.88,NNE,29,0.0,0.0,77,0.00,,,0.01,Wunderground v.1.15,2013-03-28 19:31:00,
2013-03-28 12:51:00,57.6,51.1,29.88,ESE,107,0.0,0.0,79,0.00,,,0.01,Wunderground v.1.15,2013-03-28 19:51:00,
2013-03-28 13:06:00,56.9,51.1,29.88,ESE,105,0.0,0.0,81,0.00,,,0.01,Wunderground v.1.15,2013-03-28 20:06:00,
2013-03-28 13:11:00,56.8,50.7,29.88,ESE,105,0.0,0.0,80,0.00,,,0.01,Wunderground v.1.15,2013-03-28 20:11:00,
2013-03-28 13:21:00,56.8,51.4,29.88,North,355,0.0,0.0,82,0.00,,,0.01,Wunderground v.1.15,2013-03-28 20:21:00,
2013-03-28 13:26:00,56.9,51.5,29.88,North,355,0.0,0.0,82,0.00,,,0.01,Wunderground v.1.15,2013-03-28 20:26:00,
2013-03-28 13:36:00,56.9,50.5,29.88,North,360,0.0,0.0,79,0.00,,,0.01,Wunderground v.1.15,2013-03-28 20:36:00,
2013-03-28 13:46:00,56.4,51.6,29.88,SE,139,0.0,0.0,84,0.00,,,0.01,Wunderground v.1.15,2013-03-28 20:46:00,
2013-03-28 13:56:00,56.3,51.2,29.88,SE,126,0.0,1.0,83,0.00,,,0.02,Wunderground v.1.15,2013-03-28 20:56:00,
2013-03-28 14:06:00,55.6,51.8,29.88,SE,142,0.0,1.0,87,0.08,,,0.03,Wunderground v.1.15,2013-03-28 21:06:00,
2013-03-28 14:20:00,56.5,51.7,29.88,SE,146,0.0,0.0,84,0.00,,,0.03,Wunderground v.1.15,2013-03-28 21:20:00,
2013-03-28 14:26:00,57.3,54.1,29.88,SSW,213,1.0,1.0,89,0.00,,,0.03,Wunderground v.1.15,2013-03-28 21:26:00,
2013-03-28 14:35:00,57.7,52.6,29.87,NNE,29,0.0,1.0,83,0.00,,,0.03,Wunderground v.1.15,2013-03-28 21:35:00,
2013-03-28 14:41:00,57.4,52.3,29.87,ENE,63,1.0,1.0,83,0.00,,,0.03,Wunderground v.1.15,2013-03-28 21:41:00,
2013-03-28 14:50:00,57.1,52.3,29.87,South,186,1.0,1.0,84,0.00,,,0.03,Wunderground v.1.15,2013-03-28 21:50:00,
2013-03-28 15:05:00,57.5,52.4,29.87,ENE,59,0.0,0.0,83,0.00,,,0.03,Wunderground v.1.15,2013-03-28 22:05:00,
2013-03-28 15:15:00,57.3,52.5,29.86,ESE,108,0.0,0.0,84,0.00,,,0.04,Wunderground v.1.15,2013-03-28 22:15:00,
2013-03-28 15:25:00,57.5,53.0,29.86,ESE,113,0.0,0.0,85,0.00,,,0.04,Wunderground v.1.15,2013-03-28 22:25:00,
2013-03-28 15:35:00,57.9,52.8,29.86,ESE,113,0.0,0.0,83,0.00,,,0.04,Wunderground v.1.15,2013-03-28 22:35:00,
2013-03-28 15:47:00,58.8,52.6,29.87,ENE,74,0.0,1.0,80,0.00,,,0.04,Wunderground v.1.15,2013-03-28 22:47:00,
2013-03-28 15:56:00,58.6,52.8,29.87,ENE,76,0.0,0.0,81,0.00,,,0.04,Wunderground v.1.15,2013-03-28 22:56:00,
2013-03-28 16:02:00,58.5,52.4,29.86,ESE,103,0.0,0.0,80,0.00,,,0.04,Wunderground v.1.15,2013-03-28 23:02:00,
2013-03-28 16:07:00,58.4,52.3,29.87,SE,130,0.0,0.0,80,0.00,,,0.04,Wunderground v.1.15,2013-03-28 23:07:00,
2013-03-28 16:16:00,58.8,53.0,29.87,SE,130,0.0,0.0,81,0.00,,,0.04,Wunderground v.1.15,2013-03-28 23:16:00,
2013-03-28 16:26:00,59.0,53.2,29.86,SE,130,0.0,0.0,81,0.00,,,0.04,Wunderground v.1.15,2013-03-28 23:26:00,
2013-03-28 16:36:00,59.0,53.2,29.86,SE,130,0.0,0.0,81,0.00,,,0.04,Wunderground v.1.15,2013-03-28 23:36:00,
2013-03-28 16:46:00,59.0,53.2,29.86,SE,130,0.0,0.0,81,0.00,,,0.04,Wunderground v.1.15,2013-03-28 23:46:00,
2013-03-28 16:51:00,59.1,53.6,29.86,SE,130,0.0,0.0,82,0.00,,,0.04,Wunderground v.1.15,2013-03-28 23:51:00,
2013-03-28 17:01:00,59.2,52.7,29.86,SE,131,0.0,1.0,79,0.00,,,0.04,Wunderground v.1.15,2013-03-29 00:01:00,
2013-03-28 17:11:00,59.0,51.8,29.86,SE,129,0.0,0.0,77,0.00,,,0.04,Wunderground v.1.15,2013-03-29 00:11:00,
2013-03-28 17:21:00,59.0,52.1,29.85,SE,129,0.0,0.0,78,0.00,,,0.04,Wunderground v.1.15,2013-03-29 00:21:00,
2013-03-28 17:31:00,59.0,52.1,29.86,SE,129,0.0,0.0,78,0.00,,,0.04,Wunderground v.1.15,2013-03-29 00:31:00,
2013-03-28 17:36:00,59.0,52.5,29.85,SE,129,0.0,0.0,79,0.00,,,0.04,Wunderground v.1.15,2013-03-29 00:36:00,
2013-03-28 17:41:00,59.0,52.5,29.85,SE,129,0.0,0.0,79,0.00,,,0.04,Wunderground v.1.15,2013-03-29 00:41:00,
2013-03-28 18:01:00,59.0,52.1,29.85,SE,129,0.0,0.0,78,0.00,,,0.04,Wunderground v.1.15,2013-03-29 01:01:00,
2013-03-28 18:16:00,58.7,52.5,29.85,SE,129,0.0,0.0,80,0.00,,,0.04,Wunderground v.1.15,2013-03-29 01:16:00,
2013-03-28 18:26:00,58.4,52.3,29.85,SE,129,0.0,0.0,80,0.00,,,0.04,Wunderground v.1.15,2013-03-29 01:26:00,
2013-03-28 18:36:00,58.1,52.3,29.85,SE,129,0.0,0.0,81,0.00,,,0.04,Wunderground v.1.15,2013-03-29 01:36:00,
2013-03-28 18:51:00,57.7,52.2,29.84,SE,129,0.0,0.0,82,0.00,,,0.04,Wunderground v.1.15,2013-03-29 01:51:00,
2013-03-28 19:06:00,57.3,51.9,29.85,SE,129,0.0,0.0,82,0.00,,,0.04,Wunderground v.1.15,2013-03-29 02:06:00,
2013-03-28 19:11:00,57.1,51.7,29.85,SE,129,0.0,0.0,82,0.00,,,0.04,Wunderground v.1.15,2013-03-29 02:11:00,
2013-03-28 19:16:00,57.0,51.6,29.85,SE,129,0.0,0.0,82,0.00,,,0.04,Wunderground v.1.15,2013-03-29 02:16:00,
2013-03-28 19:26:00,56.7,51.3,29.85,SE,129,0.0,0.0,82,0.00,,,0.04,Wunderground v.1.15,2013-03-29 02:26:00,
2013-03-28 19:31:00,56.4,51.0,29.85,SE,129,0.0,0.0,82,0.00,,,0.04,Wunderground v.1.15,2013-03-29 02:31:00,
2013-03-28 19:41:00,56.0,50.6,29.85,SE,129,0.0,0.0,82,0.00,,,0.04,Wunderground v.1.15,2013-03-29 02:41:00,
2013-03-28 19:56:00,55.4,50.3,29.85,SE,129,0.0,0.0,83,0.00,,,0.04,Wunderground v.1.15,2013-03-29 02:56:00,
2013-03-28 20:06:00,55.2,50.4,29.85,SE,129,0.0,0.0,84,0.00,,,0.04,Wunderground v.1.15,2013-03-29 03:06:00,
2013-03-28 20:15:00,55.0,50.6,29.85,SE,129,0.0,0.0,85,0.00,,,0.04,Wunderground v.1.15,2013-03-29 03:15:00,
2013-03-28 20:21:00,54.8,50.4,29.86,SE,129,0.0,0.0,85,0.00,,,0.04,Wunderground v.1.15,2013-03-29 03:21:00,
2013-03-28 20:30:00,54.5,50.1,29.85,SE,129,0.0,0.0,85,0.00,,,0.04,Wunderground v.1.15,2013-03-29 03:30:00,
2013-03-28 20:41:00,54.3,50.2,29.86,SE,129,0.0,0.0,86,0.00,,,0.04,Wunderground v.1.15,2013-03-29 03:41:00,
2013-03-28 20:52:00,54.0,49.6,29.86,SE,129,0.0,0.0,85,0.00,,,0.04,Wunderground v.1.15,2013-03-29 03:52:00,
2013-03-28 21:02:00,53.7,49.3,29.86,SE,129,0.0,0.0,85,0.00,,,0.04,Wunderground v.1.15,2013-03-29 04:02:00,
2013-03-28 21:06:00,53.5,49.1,29.86,SE,129,0.0,0.0,85,0.00,,,0.04,Wunderground v.1.15,2013-03-29 04:06:00,
2013-03-28 21:12:00,53.3,48.9,29.86,SE,129,0.0,0.0,85,0.00,,,0.04,Wunderground v.1.15,2013-03-29 04:12:00,
2013-03-28 21:21:00,53.0,48.9,29.87,SE,129,0.0,0.0,86,0.00,,,0.04,Wunderground v.1.15,2013-03-29 04:21:00,
2013-03-28 21:36:00,52.4,48.3,29.87,SE,129,0.0,0.0,86,0.00,,,0.04,Wunderground v.1.15,2013-03-29 04:36:00,
2013-03-28 21:46:00,52.2,48.1,29.87,SE,129,0.0,0.0,86,0.00,,,0.04,Wunderground v.1.15,2013-03-29 04:46:00,
2013-03-28 21:56:00,51.8,47.7,29.88,SE,129,0.0,0.0,86,0.00,,,0.04,Wunderground v.1.15,2013-03-29 04:56:00,
2013-03-28 22:02:00,51.7,48.0,29.88,SE,129,0.0,0.0,87,0.00,,,0.04,Wunderground v.1.15,2013-03-29 05:02:00,
2013-03-28 22:11:00,51.5,47.8,29.88,SE,129,0.0,0.0,87,0.00,,,0.04,Wunderground v.1.15,2013-03-29 05:11:00,
2013-03-28 22:21:00,51.4,48.0,29.88,SE,129,0.0,0.0,88,0.00,,,0.04,Wunderground v.1.15,2013-03-29 05:21:00,
2013-03-28 22:26:00,51.4,48.0,29.88,SE,129,0.0,0.0,88,0.00,,,0.04,Wunderground v.1.15,2013-03-29 05:26:00,
2013-03-28 22:31:00,51.3,47.9,29.88,SE,129,0.0,0.0,88,0.00,,,0.04,Wunderground v.1.15,2013-03-29 05:31:00,
2013-03-28 22:41:00,51.1,47.7,29.88,SE,129,0.0,0.0,88,0.00,,,0.04,Wunderground v.1.15,2013-03-29 05:41:00,
2013-03-28 22:51:00,50.9,47.5,29.88,SE,129,0.0,0.0,88,0.00,,,0.04,Wunderground v.1.15,2013-03-29 05:51:00,
2013-03-28 23:01:00,50.7,47.3,29.88,SE,129,0.0,0.0,88,0.00,,,0.04,Wunderground v.1.15,2013-03-29 06:01:00,
2013-03-28 23:11:00,50.4,47.0,29.88,SE,129,0.0,0.0,88,0.00,,,0.04,Wunderground v.1.15,2013-03-29 06:11:00,
2013-03-28 23:21:00,50.2,46.8,29.88,SE,129,0.0,0.0,88,0.00,,,0.04,Wunderground v.1.15,2013-03-29 06:21:00,
2013-03-28 23:36:00,49.9,46.8,29.88,SE,129,0.0,0.0,89,0.00,,,0.04,Wunderground v.1.15,2013-03-29 06:36:00,
2013-03-28 23:41:00,49.8,46.7,29.88,SE,129,0.0,0.0,89,0.00,,,0.04,Wunderground v.1.15,2013-03-29 06:41:00,
2013-03-28 23:51:00,49.7,46.6,29.88,SE,129,0.0,0.0,89,0.00,,,0.04,Wunderground v.1.15,2013-03-29 06:51:00,